This demonstration page uses our WeatherBlox Daily Observations layout. Learn more.

38.89511, -77.03637

Hourly Observations for November 9, 2017

Temp ( °F °C ) Dew Point ( °F °C ) Humidity (%) Winds ( mph kmh ) Pressure ( in mb ) Visibility ( mi km ) Precip ( " mm )
12:52 am 00:52 Mostly Cloudy 45 7.2 39 3.9 80 80 N 7 11 30.21 1023 10 16.09344 0 0
1:52 am 01:52 Mostly Cloudy 45 7.2 39 3.9 80 80 N 8 13 30.21 1023 10 16.09344 0 0
2:52 am 02:52 Cloudy 45 7.2 40 4.4 83 83 NNW 7 11 30.18 1022 10 16.09344 0 0
3:44 am 03:44 Cloudy 46 7.8 40 4.4 79 79 NNW 8 13 30.21 1023 10 16.09344 0 0
3:52 am 03:52 Cloudy 46 7.8 40 4.4 79 79 N 7 11 30.18 1022 10 16.09344 0 0
4:25 am 04:25 Cloudy 46 7.8 40 4.4 79 79 N 7 11 30.21 1023 10 16.09344 0 0
4:52 am 04:52 Cloudy with Light Rain 46 7.8 41 5 83 83 N 7 11 30.18 1022 10 16.09344 0.001 0.001
5:31 am 05:31 Cloudy 46 7.8 41 5 83 83 NNW 7 11 30.21 1023 10 16.09344 0.001 0.001
5:52 am 05:52 Cloudy 46 7.8 41 5 83 83 NNW 7 11 30.18 1022 10 16.09344 0.001 0.001
6:25 am 06:25 Cloudy with Light Rain 46 7.8 41 5 83 83 NNW 7 11 30.21 1023 10 16.09344 0.001 0.001
6:52 am 06:52 Cloudy with Light Rain 46 7.8 42 5.6 86 86 NNW 8 13 30.21 1023 10 16.09344 0.01 0.254
7:52 am 07:52 Cloudy 47 8.3 42 5.6 83 83 NNE 8 13 30.18 1022 10 16.09344 0.001 0.001
8:52 am 08:52 Cloudy 47 8.3 43 6.1 86 86 NE 8 13 30.18 1022 8 12.874752 0 0
9:17 am 09:17 Cloudy 48 8.9 43 6.1 83 83 NNE 8 13 30.18 1022 10 16.09344 0 0
9:52 am 09:52 Cloudy 49 9.4 44 6.7 83 83 NNE 6 9 30.15 1021 10 16.09344 0 0
10:34 am 10:34 Cloudy 50 10 45 7.2 83 83 NNE 6 9 30.18 1022 10 16.09344 0 0
10:52 am 10:52 Cloudy 50 10 46 7.8 86 86 NNW 7 11 30.15 1021 9 14.484096 0 0
11:52 am 11:52 Cloudy 51 10.6 47 8.3 86 86 Calm 30.09 1019 9 14.484096 0 0
12:03 pm 12:03 Cloudy 51 10.6 46 7.8 83 83 Calm 30.12 1020 10 16.09344 0 0
12:52 pm 12:52 Cloudy 54 12.2 47 8.3 77 77 Calm 30.09 1019 10 16.09344 0 0
1:52 pm 13:52 Cloudy 57 13.9 48 8.9 72 72 Calm 30.06 1018 10 16.09344 0 0
2:12 pm 14:12 Cloudy 56 13.3 48 8.9 75 75 N 5 7 30.06 1018 10 16.09344 0 0
2:52 pm 14:52 Cloudy 56 13.3 49 9.4 77 77 NNE 5 7 30.06 1018 10 16.09344 0 0
3:52 pm 15:52 Cloudy 56 13.3 49 9.4 77 77 N 3 6 30.06 1018 10 16.09344 0 0
4:36 pm 16:36 Cloudy 56 13.3 48 8.9 75 75 WNW 3 6 30.06 1018 10 16.09344 0 0
4:44 pm 16:44 Cloudy 56 13.3 48 8.9 75 75 NW 5 7 30.06 1018 10 16.09344 0 0
4:52 pm 16:52 Cloudy 56 13.3 48 8.9 75 75 W 5 7 30.06 1018 10 16.09344 0 0
5:52 pm 17:52 Cloudy 55 12.8 49 9.4 80 80 WNW 7 11 30.06 1018 10 16.09344 0 0
6:52 pm 18:52 Cloudy 53 11.7 49 9.4 86 86 WNW 6 9 30.06 1018 10 16.09344 0.001 0.001
7:10 pm 19:10 Cloudy 53 11.7 49 9.4 86 86 WNW 5 7 30.06 1018 7 11.265408 0 0
7:52 pm 19:52 Cloudy 52 11.1 49 9.4 89 89 WNW 6 9 30.06 1018 10 16.09344 0 0
7:59 pm 19:59 Cloudy 52 11.1 49 9.4 89 89 WNW 5 7 30.06 1018 10 16.09344 0 0
8:11 pm 20:11 Cloudy with Light Rain 52 11.1 49 9.4 89 89 WNW 6 9 30.06 1018 5 8.04672 0.001 0.001
8:23 pm 20:23 Cloudy with Light Rain 52 11.1 50 10 93 93 WNW 7 11 30.06 1018 3 4.828032 0.001 0.001
8:25 pm 20:25 Cloudy with Light Rain 52 11.1 50 10 93 93 W 8 13 30.06 1018 2 3.218688 0.001 0.001
8:38 pm 20:38 Cloudy with Light Rain 52 11.1 50 10 93 93 W 6 9 30.09 1019 2 3.218688 0.02 0.508
8:47 pm 20:47 Cloudy with Light Rain 52 11 50 10 94 94 W 5 7 30.06 1018 4 6.437376 0.02 0.508
8:52 pm 20:52 Cloudy with Light Rain 51 10.6 50 10 96 96 W 5 7 30.06 1018 4 6.437376 0.02 0.508
9:09 pm 21:09 Cloudy with Mist and Fog 52 11.1 50 10 93 93 WNW 5 7 30.06 1018 5 8.04672 0.001 0.001
9:52 pm 21:52 Cloudy 52 11.1 50 10 93 93 Calm 30.06 1018 8 12.874752 0.001 0.001
10:23 pm 22:23 Cloudy 51 10.6 50 10 96 96 WNW 6 9 30.06 1018 8 12.874752 0 0
10:52 pm 22:52 Partly Cloudy 50 10 49 9.4 96 96 Calm 30.06 1018 10 16.09344 0 0
11:15 pm 23:15 Partly Cloudy 50 10 49 9.4 96 96 WSW 6 9 30.06 1018 10 16.09344 0 0
11:36 pm 23:36 Mostly Cloudy 49 9.4 48 8.9 97 97 W 3 6 30.06 1018 10 16.09344 0 0
11:52 pm 23:52 Cloudy 49 9.4 49 9.4 100 100 WNW 6 9 30.06 1018 10 16.09344 0 0

Powered by AerisWeather